[Iaude] MPEC G56: 2024 GO [a=2.12,e=0.84,i=1.3,H=26.5]

mpec at cfa.harvard.edu mpec at cfa.harvard.edu
Fri Apr 5 08:54:24 EDT 2024


M.P.E.C. 2024-G56                                 Issued 2024 April 5, 12:53 UT

     The Minor Planet Electronic Circulars contain information on unusual
         minor planets, routine data on comets and natural satellites,
         and occasional editorial announcements.  They are published
    on behalf of Division F of the International Astronomical Union by the
          Minor Planet Center, Smithsonian Astrophysical Observatory,
                          Cambridge, MA 02138, U.S.A.
			  
             Prepared using the Tamkin Foundation Computer Network

                              MPC at CFA.HARVARD.EDU
            URL https://www.minorplanetcenter.net/    ISSN 1523-6714

                                    2024 GO                                     


Observations:
     K24G00O*1C2024 04 04.29686312 56 31.560-18 38 45.20         18.84GVEG056G96
     K24G00O 1C2024 04 04.30241812 56 19.712-18 40 12.40               VEG056G96
     K24G00O 1C2024 04 04.30797612 56 07.868-18 41 38.69         19.16GVEG056G96
     K24G00O 1C2024 04 04.31353212 55 55.837-18 43 06.24         18.75GVEG056G96
     K24G00O KC2024 04 04.37749512 53 30.782-19 00 30.85         19.08GVEG056I52
     K24G00O KC2024 04 04.37807512 53 29.396-19 00 40.39         19.23GVEG056I52
     K24G00O KC2024 04 04.37866412 53 27.982-19 00 50.47         19.00GVEG056I52
     K24G00O KC2024 04 04.37925612 53 26.585-19 01 00.55         19.06GVEG056I52
     K24G00O KB2024 04 04.52633 12 47 41.04 -19 47 47.4          18.4 GXEG056Q06
     K24G00O KB2024 04 04.52866 12 47 34.07 -19 48 38.3          19.1 GXEG056Q06
     K24G00O KB2024 04 04.53095 12 47 27.39 -19 49 26.2          18.9 GXEG056Q06
     K24G00O  C2024 04 04.78615 12 32 27.73 -21 29 57.4          19.7 GVEG056M28
     K24G00O  C2024 04 04.78817 12 32 18.10 -21 31 03.5          18.9 GVEG056M28
     K24G00O KB2024 04 05.02426412 08 48.678-24 06 09.24         16.8 VZEG056Y05
     K24G00O KB2024 04 05.02638412 08 31.526-24 07 52.19         17.2 VZEG056Y05
     K24G00O KB2024 04 05.02846612 08 14.622-24 09 32.99               ZEG056Y05
     K24G00O KC2024 04 05.33261811 04 36.744-29 22 25.50         17.8 GVEG056474
     K24G00O KC2024 04 05.33303911 04 28.315-29 22 58.40         17.5 GVEG056474
     K24G00O KC2024 04 05.33346111 04 19.932-29 23 31.70         17.1 GVEG056474
     K24G00O KC2024 04 05.33388211 04 11.472-29 24 04.86         17.6 GVEG056474
     K24G00O KC2024 04 05.33430211 04 02.988-29 24 38.05         17.5 GVEG056474
     K24G00O KC2024 04 05.33472311 03 54.578-29 25 11.03         17.4 GVEG056474
     K24G00O KC2024 04 05.33556511 03 37.546-29 26 17.52         17.6 GVEG056474
     K24G00O KC2024 04 05.36336 10 53 46.96 -30 03 06.0          16.9 rZEG056R56
     K24G00O KC2024 04 05.36523 10 53 05.36 -30 05 33.5          17.3 rZEG056R56
     K24G00O KC2024 04 05.36712 10 52 22.52 -30 08 05.0          17.3 rZEG056R56

Observer details:
474 Mount John Observatory, Lake Tekapo.  Observers A. C. Gilmore, P. M.
    Kilmartin.  Measurer P. M. Kilmartin.  0.6-m f/6.3 Reflector + CCD.
G96 Mt. Lemmon Survey.  Observer G. J. Leonard.  Measurers T. Beuden, V. F.
    Carvajal, D. Fay, J. B. Fazekas, D. C. Fuls, A. R. Gibbs, A. D. Grauer, H.
    Groeller, J. K. Hogan, R. A. Kowalski, S. M. Larson, G. J. Leonard, D.
    Rankin, R. L. Seaman, F. C. Shelly, K. W. Wierzchos.  1.5-m reflector +
    10K CCD.
I52 Steward Observatory, Mt. Lemmon Station.  Observer R. A. Kowalski.
    Measurers T. Beuden, V. F. Carvajal, D. Fay, J. B. Fazekas, D. C. Fuls, A.
    R. Gibbs, A. D. Grauer, H. Groeller, J. K. Hogan, R. A. Kowalski, S. M.
    Larson, G. J. Leonard, D. Rankin, R. L. Seaman, F. C. Shelly, K. W.
    Wierzchos.  1.0-m prime focus + CCD.
M28 Lesedi Telescope-SAAO Observatory, Sutherland.  Observers N. Erasmus, S.
    Potter, C. van Gend, S. Chandra, H. Worters.  Measurers T. Ngwane, N.
    Erasmus.  1.0-m f/8 Reflector + CCD.
Q06 Tarui Observatory, Tarui.  Observer H. Watanabe.  0.35-m f/1.9 Schmidt-
    Cassegrain + CMO.
R56 Scott Street Observatory, Lake Tekapo.  Observer A. Vilquin Barrajon.
    0.20-m f/8.1 reflector + CCD.
Y05 SONEAR Wykrota-CEAMIG, Serra da Piedade.  Observer C. Jacques.  0.45-m
    f/2.9 reflector + CMO.

Orbital elements:
2024 GO                                                  Earth MOID = 0.0044 AU
Epoch 2024 Mar. 31.0 TT = JDT 2460400.5                 Veres                   
M 344.53243              (2000.0)            P               Q                  
n   0.31981920     Peri.  105.47571     +0.67897511     +0.73409048             
a   2.1177094      Node   207.29643     -0.68181638     +0.62535384             
e   0.8408745      Incl.    1.27402     -0.27224845     +0.26465779             
P   3.08           H   26.58          G   0.15           U   8                  
Residuals in seconds of arc
240404 G96  0.3-  0.0     240404 Q06 (2.4-  2.4-)   240405 474  0.5+  0.1+
240404 G96  0.7-  0.7-    240404 Q06  1.4-  0.9-    240405 474  0.4+  0.2+
240404 G96  0.4+  0.1+    240404 M28  1.7+  1.3+    240405 474  0.1-  0.2+
240404 G96  0.1+  0.1+    240404 M28  2.2-  0.4-    240405 474  0.8+  0.5+
240404 I52  0.3+  0.1-    240405 Y05  0.6+  0.7-    240405 474  0.0   0.5+
240404 I52  0.1+  0.2+    240405 Y05  0.1+  0.9-    240405 R56  1.7-  1.0-
240404 I52  0.1-  0.1+    240405 Y05  0.1+  0.5-    240405 R56  1.8+  0.3+
240404 I52  0.0   0.0     240405 474  0.3-  0.2-    240405 R56  1.3-  0.8-
240404 Q06  0.5-  1.6-    240405 474  0.3-  0.1+

Ephemeris:
2024 GO                  a,e,i = 2.12, 0.84, 1                   q = 0.3370
Date    TT    R. A. (2000) Decl.     Delta      r    Elong.  Phase     V
2024 03 06    13 33 38.6 -11 26 54   0.5508  1.4563   139.7    26.2    27.3
...
2024 03 21    13 37 22.1 -12 23 33   0.2721  1.2454   153.4    21.0    25.3
...
2024 03 29    13 34 28.6 -13 13 09   0.1320  1.1243   161.5    16.4    23.3
...
2024 04 04    13 04 38.9 -17 30 19   0.02969 1.0292   167.8    11.8    19.7
2024 04 05    12 11 38.8 -23 46 15   0.01336 1.0129   159.2    20.5    18.3
2024 04 06    04 29 17.5 -14 18 11   0.0074220.9966    55.8   123.8    21.1
...
2024 04 12    01 53 21.2 +10 29 07   0.1075  0.8961     7.9   171.2
...
2024 04 20    01 46 55.5 +11 18 27   0.2488  0.7558     1.2   178.4
...
2024 05 05    01 49 08.7 +11 56 46   0.5670  0.4841    15.1   147.2    31.7

M. P. C. Staff               (C) Copyright 2024 MPC           M.P.E.C. 2024-G56





More information about the Iaude mailing list